Simultaneous Nadir Overpasses (SNOs) Predictions

Prediction of SNOs between GOES-15 and METOP-B Satellite Orbit:

Table of predicted SNOs for the next 14.0 days since TLE Epoch: 11/4/2023
Index Date Time (GOES-15) GOES-15 Lat,Lon METOP-B Lat,Lon Distance(km) Time Diff (sec)
1 11/04/2023 17:17:55 0.28, 62.74 0.26, 62.74 2.01 80
2 11/06/2023 05:36:49 -0.27, 62.05 0.62, 58.15 445.41 80
3 11/07/2023 05:13:30 -0.27, 61.67 -0.57, 63.12 164.99 80
4 11/08/2023 17:35:12 0.27, 61.20 -0.35, 58.50 307.80 80
5 11/09/2023 17:11:53 0.27, 60.82 0.85, 63.47 301.64 80
6 11/11/2023 05:33:26 -0.27, 60.14 0.02, 58.88 143.93 80
7 11/12/2023 05:10:08 -0.27, 59.76 -1.18, 63.85 465.96 80
8 11/13/2023 17:31:48 0.26, 59.30 0.23, 59.24 7.83 80
9 11/15/2023 05:50:41 -0.25, 58.64 0.64, 54.64 455.35 80
10 11/16/2023 05:27:23 -0.25, 58.27 -0.57, 59.61 153.78 80
11 11/17/2023 17:49:03 0.24, 57.81 -0.37, 55.00 319.72 80
